Regional Weather Roundup
Issued by NWS

Home | Current Version | Previous Version | Text Only | Print | Product List | Glossary Off
Versions: 1 2 3 4 5 6 7 8 9 10 11 12 13 14 15 16 17 18 19 20 21 22 23 24 25 26 27 28 29 30 31 32 33 34 35 36 37 38 39 40 41 42 43 44 45 46 47 48 49 50

000
ASUS45 KCYS 271810
RWRWY

WYOMING REGIONAL WEATHER ROUNDUP
NATIONAL WEATHER SERVICE CHEYENNE WY
1200 PM MDT THU AUG 27 2015

NOTE:  "FAIR" INDICATES FEW OR NO CLOUDS BELOW 12,000 FEET
WITH NO SIGNIFICANT WEATHER AND/OR OBSTRUCTIONS TO VISIBILITY.

WYZ001-271900-
YELLOWSTONE NATIONAL PARK

CITY           SKY/WX    TMP DP  RH WIND       PRES   REMARKS
LK YELLOWSTONE   N/A     56  48  74 VRB3      30.45S
6HR MIN TEMP:  38; 6HR MAX TEMP:  57;

W YELLOWSTONE  NOT AVBL

$$
WYZ002>013-054>058-071-098>099-271900-
NORTHERN WYOMING

CITY           SKY/WX    TMP DP  RH WIND       PRES   REMARKS
JACKSON        CLOUDY    57  54  88 W3        30.39S
CODY           FAIR      75  46  35 SW6       30.19S
GREYBULL       FAIR      74  53  48 SE8       30.15F
6HR MIN TEMP:  63; 6HR MAX TEMP:  75; 6HR PCP: TRACE;

WORLAND        FAIR      70  60  70 N7        30.18R
6HR MIN TEMP:  61; 6HR MAX TEMP:  70; 6HR PCP: TRACE;

SHERIDAN       FAIR      84  49  29 W5        30.07F
6HR MIN TEMP:  63; 6HR MAX TEMP:  84; 6HR PCP: TRACE;

BUFFALO        FAIR      79  48  33 S12       30.16F
6HR MIN TEMP:  61; 6HR MAX TEMP:  79; 6HR PCP:  0.01;

GILLETTE       FAIR      74  53  48 SE10      30.11S
6HR MIN TEMP:  61; 6HR MAX TEMP:  75; 6HR PCP:  0.01;

HULETT         CLOUDY    70  57  64 SW5       30.12F
NEWCASTLE      FAIR      70  46  43 N16G22    30.12F

$$
WYZ014>020-022>026-101>103-271900-
CENTRAL WYOMING

CITY           SKY/WX    TMP DP  RH WIND       PRES   REMARKS
BIG PINEY      FAIR      73  48  41 N10G16    30.35F
6HR MIN TEMP:  48; 6HR MAX TEMP:  73;

PINEDALE       FAIR      66  48  52 NW18G24   30.35F
DUBOIS         FAIR      72  43  35 NW10G21   30.32S
LANDER         FAIR      76  49  38 VRB5      30.22F
6HR MIN TEMP:  59; 6HR MAX TEMP:  76;

RIVERTON       PTSUNNY   70  52  52 E9        30.24F
6HR MIN TEMP:  60; 6HR MAX TEMP:  71;

CASPER         CLOUDY    73  47  39 VRB3      30.21F
6HR MIN TEMP:  63; 6HR MAX TEMP:  73; 6HR PCP: TRACE;

DOUGLAS        PTSUNNY   78  48  34 N13       30.17F
6HR MIN TEMP:  67; 6HR MAX TEMP:  79;


$$
WYZ021-027>030-104>119-271900-
SOUTHERN WYOMING

CITY           SKY/WX    TMP DP  RH WIND       PRES   REMARKS
EVANSTON       FAIR      68  55  63 SW8       30.40F
6HR MIN TEMP:  53; 6HR MAX TEMP:  68;

KEMMERER       FAIR      68  46  45 W16G23    30.40S
FORT BRIDGER   CLEAR     72  50  46 W10G21    30.40F
ROCK SPRINGS   FAIR      69  53  56 W17       30.34F
6HR MIN TEMP:  55; 6HR MAX TEMP:  69;

DIXON          CLOUDY    65  59  80 W12       30.35S
RAWLINS        CLOUDY    63  56  78 N9        30.32S
6HR MIN TEMP:  56; 6HR MAX TEMP:  63; 6HR PCP:  0.09;

SARATOGA       CLOUDY    59  55  88 E5        30.33F
LARAMIE        CLOUDY    60  53  77 NW13      30.32F
6HR MIN TEMP:  54; 6HR MAX TEMP:  61; 6HR PCP:  0.04;

CHEYENNE       FAIR      75  49  39 NW18G28   30.20F
6HR MIN TEMP:  64; 6HR MAX TEMP:  76;

TORRINGTON     FAIR      78  60  53 NW13G21   30.07S
6HR MIN TEMP:  64; 6HR MAX TEMP:  79; 6HR PCP: TRACE;

PINE BLUFFS    MOCLDY    77  45  31 NW21G29   30.13F

$$


USA.gov is the U.S. government's official web portal to all federal, state and local government web resources and services.